When you browse on this site, cookies collect data to enhance your experience and personalize the content and advertising you see.
Visit our Privacy Policy to learn more. By continuing to use the site, you agree to this use of cookies and data.
  • In Italy
  • List of Countries
  • For 7 days
  • Water Temperature
  • Satellite Maps
  • Weather Map
  • Weather Widgets
  • user-avatar
    Login

    Hourly Weather Gorelovka

    Today, 21 January, Monday

    Time Temperature Precipitation Wind Pressure Humidity
    00:00 -11°C° 0 mm 6 mps 750 mmHg 88%
    01:00 -11°C° 0 mm 6 mps 750 mmHg 88%
    02:00 -11°C° 0 mm 6 mps 749 mmHg 89%
    03:00 -12°C° 0 mm 6 mps 749 mmHg 89%
    04:00 -12°C° 0 mm 5 mps 749 mmHg 90%
    05:00 -13°C° 0 mm 5 mps 748 mmHg 91%
    06:00 -14°C° 0 mm 5 mps 748 mmHg 92%
    07:00 -14°C° 0.1 mm 5 mps 748 mmHg 93%
    08:00 -14°C° 0.1 mm 5 mps 747 mmHg 93%
    09:00 -14°C° 0.1 mm 5 mps 747 mmHg 94%
    10:00 -14°C° 0.2 mm 4 mps 747 mmHg 93%
    11:00 -12°C° 0.2 mm 4 mps 747 mmHg 93%
    12:00 -12°C° 0.2 mm 4 mps 747 mmHg 93%
    13:00 -11°C° 0.1 mm 4 mps 747 mmHg 92%
    14:00 -10°C° 0.1 mm 4 mps 746 mmHg 92%
    15:00 -10°C° 0.1 mm 4 mps 746 mmHg 91%
    16:00 -10°C° 0 mm 4 mps 747 mmHg 91%
    17:00 -11°C° 0 mm 4 mps 747 mmHg 90%
    18:00 -11°C° 0 mm 4 mps 747 mmHg 89%
    19:00 -12°C° 0 mm 4 mps 748 mmHg 89%
    20:00 -14°C° 0 mm 4 mps 748 mmHg 89%
    21:00 -14°C° 0 mm 3 mps 748 mmHg 89%
    22:00 -17°C° 0 mm 4 mps 749 mmHg 90%
    23:00 -18°C° 0 mm 4 mps 749 mmHg 91%

    Tomorrow, 22 January, Tuesday

    Time Temperature Precipitation Wind Pressure Humidity
    00:00 -19°C° 0 mm 4 mps 749 mmHg 92%
    01:00 -19°C° 0 mm 3 mps 750 mmHg 93%
    02:00 -19°C° 0 mm 3 mps 750 mmHg 94%
    03:00 -21°C° 0 mm 3 mps 750 mmHg 95%
    04:00 -22°C° 0 mm 3 mps 751 mmHg 95%
    05:00 -22°C° 0 mm 3 mps 751 mmHg 95%
    06:00 -22°C° 0 mm 3 mps 751 mmHg 96%
    07:00 -23°C° 0 mm 3 mps 752 mmHg 96%
    08:00 -23°C° 0 mm 3 mps 752 mmHg 96%
    09:00 -24°C° 0 mm 3 mps 753 mmHg 96%
    10:00 -23°C° 0 mm 3 mps 753 mmHg 94%
    11:00 -21°C° 0 mm 3 mps 753 mmHg 93%
    12:00 -20°C° 0 mm 4 mps 754 mmHg 92%
    13:00 -19°C° 0 mm 3 mps 754 mmHg 92%
    14:00 -19°C° 0 mm 3 mps 754 mmHg 92%
    15:00 -19°C° 0 mm 3 mps 754 mmHg 93%
    16:00 -21°C° 0 mm 3 mps 755 mmHg 93%
    17:00 -22°C° 0 mm 3 mps 755 mmHg 94%
    18:00 -23°C° 0 mm 3 mps 755 mmHg 95%
    19:00 -23°C° 0 mm 3 mps 756 mmHg 95%
    20:00 -23°C° 0 mm 3 mps 756 mmHg 95%
    21:00 -23°C° 0 mm 2 mps 756 mmHg 95%
    22:00 -23°C° 0 mm 2 mps 756 mmHg 95%
    23:00 -23°C° 0 mm 2 mps 757 mmHg 94%

    Day after tomorrow, 23 January, Wednesday

    Time Temperature Precipitation Wind Pressure Humidity
    00:00 -23°C° 0 mm 2 mps 757 mmHg 94%
    01:00 -23°C° 0 mm 2 mps 757 mmHg 93%
    02:00 -24°C° 0 mm 2 mps 757 mmHg 93%
    03:00 -24°C° 0 mm 2 mps 757 mmHg 92%
    04:00 -24°C° 0 mm 2 mps 757 mmHg 92%
    05:00 -24°C° 0 mm 2 mps 757 mmHg 92%
    06:00 -24°C° 0 mm 2 mps 757 mmHg 93%
    07:00 -24°C° 0 mm 2 mps 757 mmHg 94%
    08:00 -24°C° 0 mm 2 mps 757 mmHg 96%
    09:00 -24°C° 0 mm 2 mps 758 mmHg 97%
    10:00 -24°C° 0 mm 3 mps 758 mmHg 97%
    11:00 -22°C° 0 mm 3 mps 758 mmHg 96%
    12:00 -21°C° 0 mm 3 mps 758 mmHg 95%
    13:00 -21°C° 0 mm 3 mps 757 mmHg 95%
    14:00 -19°C° 0 mm 3 mps 757 mmHg 95%
    15:00 -18°C° 0 mm 2 mps 757 mmHg 95%
    16:00 -21°C° 0 mm 3 mps 756 mmHg 96%
    17:00 -22°C° 0 mm 3 mps 756 mmHg 96%
    18:00 -22°C° 0 mm 3 mps 756 mmHg 97%
    19:00 -22°C° 0 mm 3 mps 756 mmHg 96%
    20:00 -21°C° 0 mm 3 mps 755 mmHg 95%
    21:00 -19°C° 0 mm 3 mps 755 mmHg 94%
    22:00 -18°C° 0.2 mm 3 mps 755 mmHg 95%
    23:00 -18°C° 0.2 mm 3 mps 754 mmHg 95%

    24 January, Thursday

    Time Temperature Precipitation Wind Pressure Humidity
    00:00 -18°C° 0.2 mm 4 mps 754 mmHg 96%
    01:00 -18°C° 0.4 mm 4 mps 753 mmHg 96%
    02:00 -17°C° 0.4 mm 4 mps 752 mmHg 96%
    03:00 -17°C° 0.4 mm 4 mps 752 mmHg 96%
    04:00 -16°C° 0.5 mm 3 mps 751 mmHg 96%
    05:00 -15°C° 0.5 mm 3 mps 750 mmHg 96%
    06:00 -15°C° 0.5 mm 3 mps 750 mmHg 96%
    07:00 -14°C° 0.2 mm 2 mps 750 mmHg 96%
    08:00 -14°C° 0.2 mm 2 mps 750 mmHg 96%
    09:00 -14°C° 0.2 mm 2 mps 750 mmHg 97%
    10:00 -14°C° 0 mm 2 mps 750 mmHg 96%
    11:00 -14°C° 0 mm 2 mps 750 mmHg 96%
    12:00 -15°C° 0 mm 3 mps 750 mmHg 95%
    13:00 -15°C° 0 mm 3 mps 750 mmHg 95%
    14:00 -15°C° 0 mm 3 mps 750 mmHg 94%
    15:00 -15°C° 0 mm 3 mps 750 mmHg 94%
    16:00 -17°C° 0 mm 3 mps 751 mmHg 95%
    17:00 -18°C° 0 mm 3 mps 751 mmHg 95%
    18:00 -19°C° 0 mm 3 mps 752 mmHg 96%
    19:00 -19°C° 0 mm 3 mps 752 mmHg 96%
    20:00 -19°C° 0 mm 3 mps 753 mmHg 97%
    21:00 -19°C° 0 mm 3 mps 753 mmHg 97%
    22:00 -21°C° 0 mm 3 mps 754 mmHg 97%
    23:00 -21°C° 0 mm 3 mps 754 mmHg 97%

    25 January, Friday

    Time Temperature Precipitation Wind Pressure Humidity
    00:00 -22°C° 0 mm 3 mps 755 mmHg 97%
    01:00 -22°C° 0 mm 3 mps 755 mmHg 98%
    02:00 -23°C° 0 mm 3 mps 756 mmHg 98%
    03:00 -24°C° 0 mm 3 mps 756 mmHg 98%
    04:00 -24°C° 0 mm 3 mps 756 mmHg 97%
    05:00 -24°C° 0 mm 2 mps 757 mmHg 96%
    06:00 -24°C° 0 mm 2 mps 757 mmHg 95%
    07:00 -24°C° 0 mm 2 mps 758 mmHg 95%
    08:00 -24°C° 0 mm 2 mps 758 mmHg 94%
    09:00 -25°C° 0 mm 2 mps 759 mmHg 93%
    10:00 -23°C° 0 mm 2 mps 759 mmHg 92%
    11:00 -19°C° 0 mm 1 mps 759 mmHg 91%
    12:00 -17°C° 0 mm 1 mps 759 mmHg 90%
    13:00 -17°C° 0 mm 1 mps 759 mmHg 90%
    14:00 -17°C° 0 mm 1 mps 759 mmHg 90%
    15:00 -17°C° 0 mm 1 mps 759 mmHg 90%
    16:00 -18°C° 0 mm 1 mps 759 mmHg 91%
    17:00 -19°C° 0 mm 1 mps 759 mmHg 92%
    18:00 -20°C° 0 mm 1 mps 759 mmHg 92%
    19:00 -21°C° 0 mm 1 mps 759 mmHg 93%
    20:00 -21°C° 0 mm 1 mps 759 mmHg 94%
    21:00 -21°C° 0 mm 1 mps 759 mmHg 95%
    22:00 -21°C° 0 mm 1 mps 759 mmHg 95%
    23:00 -22°C° 0 mm 1 mps 759 mmHg 95%

    26 January, Saturday

    Time Temperature Precipitation Wind Pressure Humidity
    00:00 -22°C° 0 mm 1 mps 759 mmHg 96%
    01:00 -22°C° 0 mm 1 mps 759 mmHg 96%
    02:00 -25°C° 0 mm 2 mps 758 mmHg 96%
    03:00 -25°C° 0 mm 2 mps 758 mmHg 96%
    04:00 -25°C° 0 mm 2 mps 758 mmHg 96%
    05:00 -25°C° 0 mm 2 mps 757 mmHg 96%
    06:00 -25°C° 0 mm 2 mps 757 mmHg 96%
    07:00 -25°C° 0 mm 2 mps 757 mmHg 95%
    08:00 -25°C° 0 mm 2 mps 757 mmHg 94%
    09:00 -25°C° 0 mm 2 mps 756 mmHg 93%
    10:00 -25°C° 0 mm 3 mps 756 mmHg 91%
    11:00 -23°C° 0 mm 3 mps 756 mmHg 89%
    12:00 -22°C° 0 mm 3 mps 755 mmHg 87%
    13:00 -22°C° 0 mm 3 mps 755 mmHg 87%
    14:00 -21°C° 0 mm 3 mps 754 mmHg 87%
    15:00 -21°C° 0 mm 3 mps 753 mmHg 88%
    16:00 -22°C° 0 mm 3 mps 753 mmHg 89%
    17:00 -23°C° 0 mm 3 mps 753 mmHg 91%
    18:00 -24°C° 0 mm 3 mps 752 mmHg 92%
    19:00 -24°C° 0 mm 4 mps 752 mmHg 93%
    20:00 -23°C° 0 mm 4 mps 752 mmHg 94%
    21:00 -22°C° 0 mm 4 mps 751 mmHg 95%
    22:00 -20°C° 0 mm 4 mps 751 mmHg 94%
    23:00 -19°C° 0 mm 4 mps 750 mmHg 94%
    Show more